This is the latest recevied weather packets stored in our database for station/object N7DQ. If no packets are shown the sender has not sent any weather packets the latest 10 day(s).
| Time | Temp. | Humidity | Pressure | Rain* | Wind** | Luminosity | Snow |
|---|---|---|---|---|---|---|---|
| 1777878606 | 16.67° C | 74% | 1009 hPa | 0 mm | - | 0 W/m² | - |
| 1777826106 | 20° C | 66% | 1013.1 hPa | 0 mm | - | 533 W/m² | - |
| 1777807206 | 11.11° C | 91% | 1013.5 hPa | 0 mm | - | 0 W/m² | - |
| 1777803305 | 11.67° C | 90% | 1013.6 hPa | 0 mm | - | 0 W/m² | - |
| 1777803006 | 11.67° C | 90% | 1013.5 hPa | 0 mm | - | 0 W/m² | - |
| 1777802706 | 12.22° C | 90% | 1013.6 hPa | 0 mm | - | 0 W/m² | - |
| 1777802406 | 12.22° C | 89% | 1013.6 hPa | 0 mm | - | 0 W/m² | - |
| 1777802105 | 12.22° C | 89% | 1013.6 hPa | 0 mm | - | 0 W/m² | - |
| 1777801806 | 12.22° C | 89% | 1013.6 hPa | 0 mm | - | 0 W/m² | - |
| 1777801506 | 12.22° C | 90% | 1013.6 hPa | 0 mm | - | 0 W/m² | - |
| 1777801206 | 12.22° C | 90% | 1013.6 hPa | 0 mm | - | 0 W/m² | - |
| 1777800906 | 12.22° C | 90% | 1013.6 hPa | 0 mm | - | 0 W/m² | - |
| 1777800606 | 12.22° C | 89% | 1013.7 hPa | 0 mm | - | 0 W/m² | - |
| 1777800306 | 12.22° C | 89% | 1013.6 hPa | 0 mm | - | 0 W/m² | - |
| 1777800006 | 12.78° C | 89% | 1013.7 hPa | 0 mm | - | 0 W/m² | - |
| 1777799706 | 12.78° C | 89% | 1013.7 hPa | 0 mm | - | 0 W/m² | - |
| 1777791906 | 14.44° C | 84% | 1013.8 hPa | 0 mm | - | 0 W/m² | - |
| 1777791606 | 14.44° C | 84% | 1013.7 hPa | 0 mm | - | 0 W/m² | - |
| 1777791305 | 14.44° C | 84% | 1013.7 hPa | 0 mm | - | 0 W/m² | - |
| 1777791006 | 14.44° C | 84% | 1013.8 hPa | 0 mm | - | 0 W/m² | - |
| 1777790706 | 14.44° C | 84% | 1013.6 hPa | 0 mm | - | 0 W/m² | - |
| 1777790406 | 14.44° C | 84% | 1013.7 hPa | 0 mm | - | 0 W/m² | - |
| 1777790106 | 14.44° C | 84% | 1013.8 hPa | 0 mm | - | 0 W/m² | - |
| 1777789805 | 14.44° C | 84% | 1013.8 hPa | 0 mm | - | 0 W/m² | - |
| 1777789506 | 15° C | 83% | 1013.8 hPa | 0 mm | - | 0 W/m² | - |
* Rain latest hour (hover to see other rain measurements)
** Current wind speed in m/s (hover to see current wind gust speed)